FW7576 Weather Reports


time (UTC)temp
F
wind
direction
speed
knots
gust
knots
rain 1hr
in
rain 24hr
in
rain mn
in
humidity
%
barometer
mb
20260904173047 72 226 3.5 8.7 0.00 0.46 0.30 87 1013.5
20260904171544 71 197 3.5 9.6 0.00 0.46 0.30 87 1013.6
20260904170045 70 219 2.6 5.2 0.01 0.46 0.30 86 1013.6
20260904164550 69 208 2.6 6.1 0.02 0.56 0.30 86 1013.7
20260904163046 69 240 3.5 8.7 0.16 0.56 0.30 86 1014.1
20260904161545 69 203 2.6 8.7 0.16 0.56 0.30 86 1014.3
20260904160047 68 216 3.5 7.8 0.15 0.55 0.29 86 1015.0
20260904154549 68 226 5.2 10.4 0.14 0.58 0.28 86 1015.1
20260904153058 69 248 3.5 8.7 0.01 0.44 0.14 86 1016.7
20260904151543 69 0 0.0 5.2 0.03 0.44 0.14 85 1016.3
20260904150048 68 116 1.7 8.7 0.10 0.44 0.14 85 1016.1
20260904144551 68 67 3.5 7.8 0.11 0.44 0.14 86 1016.2
20260904143046 68 56 2.6 6.1 0.10 0.43 0.13 87 1016.8
20260904141539 68 65 2.6 11.3 0.08 0.41 0.11 87 1017.0
20260904140052 70 54 5.2 8.7 0.01 0.34 0.04 87 1017.1
20260904134547 70 319 2.6 8.7 0.00 0.33 0.03 86 1018.3
20260904133044 70 34 4.3 11.3 0.00 0.33 0.03 86 1017.6
20260904131543 70 267 3.5 17.4 0.00 0.33 0.03 86 1016.3
20260904130057 69 0 0.0 6.1 0.00 0.33 0.03 87 1015.6
20260904124553 69 77 3.5 7.8 0.00 0.34 0.03 87 1015.9
20260904123044 69 122 2.6 13.9 0.00 0.34 0.03 87 1015.7
20260904121542 68 72 8.7 15.6 0.00 0.34 0.03 87 1015.6
20260904120105 68 347 3.5 11.3 0.00 0.34 0.03 85 1015.5
20260904114544 68 42 1.7 4.3 0.00 0.34 0.03 84 1015.2
20260904113044 68 53 0.9 4.3 0.00 0.34 0.03 84 1014.6
20260904111542 68 0 0.0 1.7 0.00 0.34 0.03 85 1014.2
20260904110048 68 0 0.0 1.7 0.00 0.34 0.03 85 1014.1
20260904104543 68 0 0.9 4.3 0.00 0.34 0.03 86 1014.0
20260904103043 68 70 1.7 4.3 0.00 0.34 0.03 86 1013.8
20260904101544 69 55 3.5 6.1 0.00 0.34 0.03 87 1014.2
20260904100049 69 36 4.3 10.4 0.01 0.34 0.03 87 1014.3
20260904094543 70 25 4.3 9.6 0.02 0.34 0.03 86 1014.5
20260904093042 71 261 4.3 11.3 0.02 0.34 0.03 85 1014.5
20260904091542 72 23 3.5 7.0 0.02 0.34 0.03 83 1014.2
20260904090050 72 85 0.0 1.7 0.01 0.33 0.02 84 1013.3
20260904084543 72 0 0.0 1.7 0.01 0.32 0.01 84 1013.4
20260904083044 72 0 0.0 0.0 0.01 0.32 0.01 84 1012.9
20260904081554 72 0 0.0 0.0 0.01 0.32 0.01 84 1012.8
20260904080047 72 0 0.0 0.0 0.01 0.32 0.01 84 1013.2
20260904074541 72 0 0.0 0.0 0.00 0.35 0.00 85 1013.4
20260904073043 71 0 0.0 0.0 0.00 0.35 0.00 85 1013.5
20260904071543 71 0 0.0 0.9 0.00 0.35 0.00 85 1013.7
20260904070046 71 0 0.0 0.9 0.00 0.35 0.00 85 1014.1
20260904064543 72 60 2.6 6.1 0.00 0.35 0.00 84 1014.4
20260904063043 72 283 0.9 4.3 0.00 0.35 0.00 85 1013.8
20260904061552 71 0 0.9 4.3 0.00 0.35 0.00 85 1014.1
20260904060044 71 75 0.0 3.5 0.00 0.35 0.00 85 1014.1
20260904054544 71 73 0.9 2.6 0.00 0.35 0.00 86 1013.9
20260904053044 72 65 0.9 1.7 0.00 0.35 0.00 86 1014.6
20260904051542 72 122 0.0 1.7 0.00 0.35 0.00 86 1014.3
20260904050043 72 0 0.0 0.9 0.00 0.35 0.00 85 1014.4
20260904044555 72 0 0.0 3.5 0.00 0.35 0.35 85 1014.4
20260904043059 72 122 0.0 1.7 0.00 0.35 0.35 85 1014.9
20260904041545 72 0 0.0 0.9 0.00 0.35 0.35 85 1014.4
20260904040042 71 0 0.0 0.0 0.00 0.35 0.35 85 1014.8
20260904034549 72 122 0.0 0.9 0.00 0.35 0.35 86 1014.6
20260904033047 72 0 0.0 0.9 0.00 0.35 0.35 86 1015.0
20260904031544 72 0 0.0 0.9 0.00 0.35 0.35 86 1015.0
20260904030043 72 0 0.0 0.9 0.00 0.35 0.35 87 1015.0
20260904024550 72 0 0.0 1.7 0.00 0.35 0.35 87 1014.7
20260904023046 72 0 0.0 0.9 0.00 0.35 0.35 87 1014.9
20260904021544 72 124 0.0 1.7 0.00 0.35 0.35 87 1014.8
20260904020044 72 0 0.0 1.7 0.00 0.35 0.35 87 1014.7
20260904014553 72 97 0.0 0.9 0.00 0.35 0.35 87 1014.5
20260904013046 72 101 0.0 0.9 0.00 0.35 0.35 87 1014.5
20260904011550 72 101 0.0 0.9 0.00 0.35 0.35 87 1014.3
20260904010046 73 0 0.0 0.9 0.00 0.35 0.35 86 1014.0
20260904004546 73 0 0.0 0.0 0.00 0.35 0.35 86 1013.8
20260904003046 74 0 0.0 0.9 0.00 0.35 0.35 84 1013.7
20260904001546 74 0 0.0 1.7 0.00 0.35 0.35 83 1013.8
20260904000049 75 71 1.7 4.3 0.00 0.35 0.35 83 1013.7
20260903234544 75 101 0.9 4.3 0.00 0.35 0.35 81 1013.7
20260903233046 75 69 1.7 5.2 0.00 0.35 0.35 80 1013.9
20260903231548 75 133 1.7 6.1 0.00 0.35 0.35 80 1013.6
20260903230049 76 65 1.7 7.8 0.00 0.35 0.35 80 1013.8
20260903224543 76 200 1.7 6.1 0.00 0.35 0.35 81 1013.9
20260903223047 76 161 1.7 5.2 0.00 0.35 0.35 80 1013.6
20260903221544 76 117 1.7 4.3 0.00 0.35 0.35 80 1013.8
20260903220047 76 94 0.9 4.3 0.00 0.35 0.35 80 1013.8
20260903214550 76 105 2.6 5.2 0.00 0.35 0.35 79 1013.8
20260903213046 76 68 3.5 7.8 0.00 0.35 0.35 77 1013.8
20260903211543 76 63 2.6 7.0 0.00 0.35 0.35 78 1013.7
20260903210045 76 73 2.6 4.3 0.00 0.35 0.35 83 1013.8
20260903204550 75 80 1.7 6.1 0.00 0.35 0.35 85 1013.9
20260903203045 76 68 3.5 8.7 0.00 0.35 0.35 83 1014.0
20260903201555 78 0 0.0 0.0 0.00 0.35 0.35 85 1013.9
20260903200043 79 0 0.0 0.9 0.00 0.35 0.35 85 1013.6
20260903194542 78 0 0.0 0.0 0.00 0.35 0.35 86 1013.4
20260903193046 78 0 0.0 0.0 0.00 0.35 0.35 85 1013.7
20260903191551 78 0 0.0 0.9 0.00 0.35 0.35 85 1014.0
20260903190044 77 0 0.0 1.7 0.00 0.35 0.35 85 1014.1
20260903184556 76 0 0.0 1.7 0.00 0.35 0.35 85 1013.8
20260903183045 74 0 0.0 0.9 0.08 0.35 0.35 83 1013.8
20260903181549 73 296 0.9 2.6 0.08 0.35 0.35 84 1014.7
20260903180051 73 34 1.7 3.5 0.16 0.35 0.35 83 1014.4
20260903174544 72 153 0.9 5.2 0.16 0.35 0.35 84 1013.7